{"data":{"norad_id":58131,"epoch":"2026-05-25T02:38:07.484640Z","epoch_age_seconds":62881,"freshness":"FRESH","line1":"1 58131U 23162P   26145.10980885 -.00000157  00000+0  38025-5 0  9995","line2":"2 58131  43.0030  57.5823 0000825 253.4957 106.5805 15.27577995144034","mean_motion":15.27577995,"eccentricity":8.25e-5,"inclination_deg":43.003,"raan_deg":57.5823,"arg_perigee_deg":253.4957,"mean_anomaly_deg":106.5805,"bstar":3.8025e-6,"rev_number":14403,"period_min":94.266872442084,"perigee_km":482.48905138929,"apogee_km":483.62114808574,"semimajor_km":6861.1920997375,"source":"CELESTRAK","updated_at":"2026-05-25T13:38:18.533517Z"}}